Regional Weather Roundup
Issued by NWS Midland/Odessa, TX

Skip options and go directly to product.
Home | Oldest Version | Previous Version | Current Version | All | Text Only | Save Text | Print | Product List | Glossary On

Skip product version selection by date and time.   
932
ASUS44 KMAF 271001
RWRMAF
MIDLAND AREA WEATHER ROUNDUP
NATIONAL WEATHER SERVICE MIDLAND TX
500 AM CDT WED MAY 27 2015

...IN SOUTHWEST TEXAS AND SOUTHEAST NEW MEXICO...

CITY           SKY/WX    TMP DP  RH WIND       PRES   REMARKS
ALPINE         CLEAR     57  50  78 W6        30.14S
ANDREWS        FAIR      66  66 100 S6        30.02S FOG
ARTESIA        CLEAR     59  37  44 S8        30.04R
BIG SPRING     MOCLDY    74  71  89 E9        30.03R
CARLSBAD       CLEAR     60  43  53 CALM      30.01S
DRYDEN           N/A     68  62  81 NW5       29.97R
FORT STOCKTON  PTCLDY    67  63  87 S5        30.00R
GUAD PASS      CLEAR     66  34  30 NE13      30.14S
HOBBS          PTCLDY    61  61 100 CALM      30.06R FOG
MARFA          CLEAR     48  43  81 N6        30.13R
MIDLAND AIRPK  PTCLDY    71  69  95 S6        30.01R FOG
MIDLAND INTL   PTCLDY    68  66  93 S5        30.00S FOG
ODESSA         PTCLDY    70  66  87 S7        30.01S FOG
PECOS          CLEAR     67  61  81 CALM      29.97S
PRESIDIO       FAIR      74  55  51 N8        29.96S
SEMINOLE       PTCLDY    59  58  96 NE5       30.05R FOG
SNYDER         CLEAR     66  63  90 S9        30.03R
WINK           PTCLDY    68  65  90 SE3       29.98R
$$
...OTHER STATIONS IN TEXAS...

CITY           SKY/WX    TMP DP  RH WIND       PRES   REMARKS
ABILENE        CLEAR     67  63  87 S10       30.01S
AMARILLO       CLEAR     58  57  97 SE8       30.07R
AUSTIN         CLOUDY    70  70 100 NE17      30.02R
BROWNSVILLE    CLOUDY    79  76  90 SE8       29.95R
CORPUS CHRISTI CLOUDY    79  76  90 SE13      29.97R
DALLAS FTW     CLOUDY    63  59  87 SW3       29.97F
DEL RIO        CLOUDY    77  74  90 E10G20    29.93S
EL PASO        CLEAR     66  30  26 S3        30.02R
HOUSTON INT    CLOUDY    78  75  90 NE6       30.04R
LUBBOCK        PTCLDY    62  60  93 SE6       30.04R
SAN ANGELO     CLOUDY    71  69  93 E6        30.02R
SAN ANTONIO    CLOUDY    77  74  90 SE6       30.01R
WACO           CLOUDY    65  62  90 NE10      29.95F
WICHITA FALLS  NOT AVBL
$$
...OTHER LOCATIONS IN NEW MEXICO...

CITY           SKY/WX    TMP DP  RH WIND       PRES   REMARKS
ALAMAGORDO     CLEAR     55  28  35 NE7       30.05R
ALBUQUERQUE    PTCLDY    60  45  57 NE8       30.12R
CANNON AFB     NOT AVBL
CLOVIS         CLEAR     54  48  82 S6        30.04S
HOLLOMAN AFB   CLEAR     58  34  40 CALM      30.03R
ROSWELL        CLEAR     52  44  74 SW3       30.03R
RUIDOSO        PTCLDY    50  28  43 SW5       30.22S
SANTA FE       PTCLDY    48  41  76 N6        30.16S
TRUTH OR CONSE CLEAR     60  24  25 W5        30.07R
TUCUMCARI      PTCLDY    60  52  74 W6        30.06S
$$

USA.gov is the U.S. government's official web portal to all federal, state and local government web resources and services.